DELTA 1 DEB, 28266

Orbit data source: Space-Track

DELTA 1 DEB, 28266 is space debris in LEO originally from a launch on Thu, 04 Jul 1968 UTC launched from the Air Force Western Test Range (AFWTR). Debris objects in space refer to the collection of defunct objects orbiting the Earth. Examples of debris include non-operational satellites, rocket bodies, and fragments generated from explosions, collisions, or faulty payload assembly.

Loading next visibility...
Identifier
28266, 1968-055L
Orbit
LEO
Country
Flag of USUS
Related business
Manufacturer
Unknown
Mission
Spacecraft
Bus & Motor
Unknown
Mass
Unknown
Launch date (UTC)
1968-07-04 (58 years ago)
Launch vehicle
Unknown
Launch site
Air Force Western Test Range (AFWTR)
Object type
Payload
Rocket body
Debris
Shape & HBR
Unknown shape, 0.1 m
Radar Cross Section
Small (<0.1 m²)

Expand to show TLE details & history
Last TLE update: 1 week ago

TLE from 1 week ago
0 DELTA 1 DEB
1 28266U 68055L   26138.35074670  .00001286  00000-0  36841-2 0  9991
2 28266 120.6832 282.8569 1678700 127.3696 249.2187 10.85061018517401
Epoch: 2026-05-18T08:25Z
TLE epoch observation values (Epoch: 2026-05-18T08:25:04.514Z)
Latitude
0.00004°
Longitude
-79.45219°
Altitude
2,947.028 km
Speed
6.266 km/s
True Right ascension
18h 51m 25s
True Declination
0° 00' 00"
Sunlit
Object was in daylight at epoch
Visualization orbit readout
Latitude
Unknown
Longitude
Unknown
Altitude
Unknown
Speed
Unknown
Apparent Right ascension
Unknown
Apparent Declination
Unknown
Sunlit
N/A
Visualization observer readout
Local Sidereal Time
02:50:39
Azimuth
Unknown
Elevation
Unknown
Doppler factor
Unknown
Orbital elements
Apogee altitude
3,686.492 km
Perigee altitude
793.106 km
Semi-major axis
8,617.936 km
Eccentricity
0.16787
Inclination
120.6832°
RAAN
282.8569°
Arg. of periapsis
127.3696°
True anomaly
232.71164°
Mean anomaly
249.2187°
Eccentric anomaly
240.821°
Mean motion
2.71293 °/min
Orbital period
132.7 mins
BSTAR
0.0036841
Loading maneuver chart data...
Computing Atmospheric mass density...
Loading historical data...
Loading historical data...
Loading historical data...
Loading historical data...
Loading historical data...
Loading historical data...
Loading historical data...

Documentation

Showing up to 5 results
|